Regional Weather Roundup
Issued by NWS Upton, NY

Current Version | Previous Version | Graphics & Text | Print | Product List | Glossary Off
Versions: 1 2 3 4 5 6 7 8 9 10 11 12 13 14 15 16 17 18 19 20 21 22 23 24 25 26 27 28 29 30 31 32 33 34 35 36 37 38 39 40 41 42 43 44 45 46 47 48 49 50

000
ASUS41 KOKX 012005
RWROKX

REGIONAL WEATHER ROUNDUP
NATIONAL WEATHER SERVICE NEW YORK NY
300 PM EST SUN FEB 01 2015

NOTE: "FAIR" INDICATES FEW OR NO CLOUDS BELOW 12,000 FEET WITH NO
SIGNIFICANT WEATHER AND/OR OBSTRUCTIONS TO VISIBILITY.

NYZ071-072-176-178-NJZ106-104-012100-
NEW YORK CITY METRO AREA


CITY           SKY/WX    TMP DP  RH WIND       PRES   REMARKS
CENTRAL PARK   CLOUDY    35  18  49 W7        30.16S WCI  29
LAGUARDIA APRT PTSUNNY   35  18  49 W8        30.14S WCI  29
KENNEDY INTL   CLOUDY    35  19  52 W7        30.16S WCI  29
NEWARK/LIBERTY CLOUDY    35  21  56 W9        30.15S WCI  28
BRNX BOT. GARD   N/A    N/A N/A N/A SW3       30.16R
TETERBORO      PTSUNNY   36  19  50 SW9       30.14R WCI  29
$$

NYZ177-179-078>081-012100-
LONG ISLAND NEW YORK

CITY           SKY/WX    TMP DP  RH WIND       PRES   REMARKS
FARMINGDALE    PTSUNNY   35  20  54 SW10      30.14S WCI  27
ISLIP          PTSUNNY   36  18  48 W10       30.12S WCI  28
SHIRLEY        CLOUDY    35  19  52 NW9       30.14S WCI  28
WESTHAMPTON    MOSUNNY   34  19  54 N7        30.14F WCI  28
MONTAUK POINT    N/A     33  20  58 W8        30.14S WCI  26
$$

NYZ052-065-067-012100-
HUDSON VALLEY

CITY           SKY/WX    TMP DP  RH WIND       PRES   REMARKS
WHITE PLAINS   PTSUNNY   34  19  54 NW10      30.11S WCI  26
NEWBURGH       PTSUNNY   32  19  59 NW14      30.11F WCI  22
MONTGOMERY     CLOUDY    34  17  50 NW8       30.10S WCI  27
POUGHKEEPSIE   CLOUDY    35  19  52 NE5       30.12R WCI  31
ALBANY         PTSUNNY   26   8  46 NE3       30.14F
$$

NJZ001-105-106-008-010-013-015-019>022-104-012100-
NEW JERSEY

CITY           SKY/WX    TMP DP  RH WIND       PRES   REMARKS
NEWARK/LIBERTY CLOUDY    35  21  56 W9        30.15S WCI  28
TETERBORO      PTSUNNY   36  19  50 SW9       30.14R WCI  29
CALDWELL       PTSUNNY   35  18  49 SW6       30.14R WCI  30
MORRISTOWN     CLOUDY    34  19  55 W8        30.15S WCI  27
SOMERVILLE     CLOUDY    37  20  50 NW6       30.13F WCI  32
SUSSEX         CLOUDY    34  19  54 SW7       30.10S WCI  28
ANDOVER          N/A     32  19  58 SW5       30.11S WCI  27
TRENTON        CLOUDY    36  20  52 SW7       30.15S WCI  30
MILLVILLE      CLOUDY    39  21  48 SW5       30.16F
ATLANTIC CITY  CLOUDY    41  20  43 NW6       30.16F
WRIGHTSTOWN    CLOUDY    37  22  54 SW8       30.13F WCI  31
TOMS RIVER     CLOUDY    37  21  52 W8        30.16S WCI  31
BELMAR         CLOUDY    36  18  48 W7        30.15S WCI  30
$$

PAZ047>061-062-071-012100-
EASTERN PENNSYLVANIA

CITY           SKY/WX    TMP DP  RH WIND       PRES   REMARKS
PHILADELPHIA   CLOUDY    38  25  59 VRB3      30.16F
ALLENTOWN      CLOUDY    34  23  64 SW6       30.13F WCI  29
SCRANTON       LGT SNOW  29  22  75 SW5       30.09S WCI  24
$$

CTZ002-004>006-009-010-012-RIZ004-006-007-MAZ004-011-015-012100-
SOUTHERN NEW ENGLAND
 IN CT

CITY           SKY/WX    TMP DP  RH WIND       PRES   REMARKS
BRADLEY INTL   PTSUNNY   33  10  38 NW12      30.10S WCI  24
HARTFORD       SUNNY     33  10  38 W12G22    30.12S WCI  24
DANBURY        CLOUDY    32  15  49 W6        30.12S WCI  26
WTRBRY/OXFORD  PTSUNNY   30  12  47 NW7       30.10S WCI  23
BRIDGEPORT     CLOUDY    34  23  64 SW8       30.13F WCI  27
MERIDEN        SUNNY     33  15  47 NW8       30.13S WCI  26
NEW HAVEN      PTSUNNY   32  21  64 S7        30.13S WCI  26
CHESTER        FAIR      32  14  47 W5G18     30.11S WCI  27
GROTON         SUNNY     33  15  47 W10       30.11S WCI  25
WILLIMANTIC    SUNNY     33  12  41 W9        30.10S WCI  25

 IN RI

CITY           SKY/WX    TMP DP  RH WIND       PRES   REMARKS
PROVIDENCE     MOSUNNY   32  11  41 W12       30.10S WCI  23
BLOCK ISLAND   SUNNY     34  16  47 W12G20    30.11R WCI  25
WESTERLY       SUNNY     35  14  42 VRB6      30.12S WCI  30

 IN MA

CITY           SKY/WX    TMP DP  RH WIND       PRES   REMARKS
BOSTON         PTSUNNY   30   5  34 W14       30.10R WCI  19
WORCESTER      SUNNY     27   9  46 W9        30.04R WCI  18
WESTFIELD      SUNNY     31   8  38 NW10      30.10S WCI  22
PROVINCETOWN   SUNNY     30  12  47 NW17      30.09R WCI  18
NANTUCKET      SUNNY     32  18  56 NW13      30.09S WCI  22
$$

ANZ330-335-338-340-345-350-353-355-012100-
COASTAL MARINE OBSERVATIONS


STATION/POSITION TIME  SKY/WX   TEMP    WIND        PRES    VSBY  WAVE
                                AIR SEA DIR/SP/G                  HT/PER
                 (UTC)          (F)     (DEG/KT/KT) (MB)    (MI)  (FT/S)
NY HARB ENTRANCE 2000            36 39  280/ 10/ 14 1021.0          1/12
4S FIRE IS       NOT AVBL
20S FIRE ISLAND  1900               41              1021.7          2/ 4
23SW MTP         2000                                 N/A           3/ 5
HUDSON CANYON    NOT AVBL
EXECUTION ROCKS  2000            36 33  230/  8/ 14   N/A
WESTERN LI SOUND 2000            35     250/  4/  6   N/A           0
CENTRAL LI SOUND 2000            31 34  240/  8/ 10   N/A           2/ 4
EASTERN LI SOUND NOT AVBL
ROBBINS REEF     2000            35     290/  9/ 11 1019.8
$$


>>>>>>>>>>>>>>>>>>>>>>>>>>>> KEY <<<<<<<<<<<<<<<<<<<<<<<<<<<
>                                                          <
>     SKY/WX - SKY CONDITION/PRESENT WEATHER               <
>     TMP    - TEMPERATURE IN FAHRENHEIT                   <
>     DP     - DEWPOINT IN FAHRENHEIT                      <
>     RH     - RELATIVE HUMIDITY IN PERCENT                <
>     WIND   - DIRECTION AND SPEED IN MPH                  <
>     PRES   - MEAN SEA LEVEL PRESSURE IN INCHES OF HG     <
>     WCI    - WIND CHILL INDEX                            <
>     VSB    - VISIBILITY IN MILES                         <
>     HX     - HEAT INDEX                                  <
>     TC     - TEMPERATURE IN CELSIUS                      <
>     VRB    - VARIABLE WIND DIRECTION                     <
>                                                          <
>>>>>>>>>>>>>>>>>>>>>>>>>>>> KEY <<<<<<<<<<<<<<<<<<<<<<<<<<<





USA.gov is the U.S. government's official web portal to all federal, state and local government web resources and services.